Weather History for Eureka, NU

Change the Weather History Date:

Monday, July 22, 2013

  Actual Average Record
Temperature  
Mean Temperature 43 °F -  
Max Temperature 49 °F 43 °F 68 °F (2007)
Min Temperature 37 °F 34 °F 33 °F (1996)
Degree Days  
Heating Degree Days 22    
Moisture  
Dew Point 33 °F    
Average Humidity 60    
Maximum Humidity 70    
Minimum Humidity 45    
Precipitation  
Precipitation 0.00 in 0.02 in - ()
Sea Level Pressure  
Sea Level Pressure 30.05 in    
Wind  
Wind Speed 7 mph ()    
Max Wind Speed 15 mph    
Max Gust Speed -    
Visibility 15.0 miles    
Events      
Averages and records for this station are not official NWS values.
T = Trace of Precipitation, MM = Missing Value Source: Averaged Metar Reports

Daily Weather History Graph

Daily Weather History Graph

Search for Another Location

Airport:

Trip Planner

Search our weather history database for the weather conditions in past years. The results will help you decide how hot, cold, wet, or windy it might be!

Date:

Astronomy

Dec. 31, 1969 Rise Set
Actual Time Sun does not rise Sun does not rise
Civil Twilight Sun does not rise Sun does not rise
Nautical Twilight Sun does not rise Sun does not rise
Astronomical Twilight Sun does not rise Sun does not rise
Moon No Moon Rise No Moon Set
Length of Visible Light 24h 00m
Length of Day
24h 00m
Full, 100% of the Moon is Illuminated
Jul 22
Full
Jul 22
Full
Jul 29
Last Quarter
Aug 6
New
Aug 14
First Quarter

Hourly Weather History & Observations

Time (CDT) Temp. Windchill Dew Point Humidity Pressure Visibility Wind Dir Wind Speed Gust Speed Precip Events Conditions
1:00 AM 44 °F - 34 °F 58% 30.07 in 15 mi West 3.5 mph - -   Scattered Clouds
1:00 AM 44.6 °F 42.2 °F 33.8 °F 66% 30.07 in 15.0 mi West 4.6 mph - N/A   Partly Cloudy
2:00 AM 42.8 °F 38.6 °F 33.8 °F 70% 30.07 in 15.0 mi NW 6.9 mph - N/A   Mostly Cloudy
3:00 AM 46.4 °F 41.9 °F 33.8 °F 62% 30.07 in 15.0 mi West 9.2 mph - N/A   Mostly Cloudy
4:00 AM 42.8 °F 41.1 °F 32.0 °F 66% 30.07 in 15.0 mi WNW 3.5 mph - N/A   Mostly Cloudy
5:00 AM 44.6 °F 43.1 °F 32.0 °F 61% 30.07 in 15.0 mi WSW 3.5 mph - N/A   Mostly Cloudy
6:00 AM 46.4 °F 43.5 °F 32.0 °F 57% 30.07 in 15.0 mi West 5.8 mph - N/A   Mostly Cloudy
7:00 AM 44 °F - 32 °F 53% 30.07 in 15 mi West 10.4 mph - -   Scattered Clouds
7:00 AM 44.6 °F 39.2 °F 32.0 °F 61% 30.07 in 15.0 mi West 10.4 mph - N/A   Mostly Cloudy
8:00 AM 44.6 °F 38.8 °F 32.0 °F 61% 30.07 in 15.0 mi West 11.5 mph - N/A   Mostly Cloudy
9:00 AM 44.6 °F 39.2 °F 32.0 °F 61% 30.07 in 15.0 mi West 10.4 mph - N/A   Mostly Cloudy
10:00 AM 44.6 °F 38.1 °F 32.0 °F 61% 30.06 in 15.0 mi West 13.8 mph - N/A   Mostly Cloudy
11:00 AM 46.4 °F 40.4 °F 32.0 °F 57% 30.05 in 15.0 mi West 13.8 mph - N/A   Mostly Cloudy
12:00 PM 44.6 °F 37.8 °F 32.0 °F 61% 30.04 in 15.0 mi West 15.0 mph - N/A   Mostly Cloudy
1:00 PM 44 °F - 32 °F 53% 30.04 in 15 mi West 15.0 mph - -   Scattered Clouds
1:00 PM 44.6 °F 38.1 °F 32.0 °F 61% 30.04 in 15.0 mi West 13.8 mph - N/A   Mostly Cloudy
2:00 PM 46.4 °F 40.4 °F 33.8 °F 62% 30.03 in 15.0 mi West 13.8 mph - N/A   Mostly Cloudy
3:00 PM 46.4 °F 40.4 °F 33.8 °F 62% 30.03 in 15.0 mi West 13.8 mph - N/A   Scattered Clouds
4:00 PM 46.4 °F 42.9 °F 33.8 °F 62% 30.03 in 15.0 mi West 6.9 mph - N/A   Scattered Clouds
5:00 PM 46.4 °F 42.4 °F 33.8 °F 62% 30.02 in 15.0 mi West 8.1 mph - N/A   Mostly Cloudy
6:00 PM 48.2 °F - 33.8 °F 58% 30.02 in 15.0 mi North 9.2 mph - N/A   Mostly Cloudy
7:00 PM 48 °F - 33 °F 45% 30.02 in 15 mi WNW 4.6 mph - -   Scattered Clouds
7:00 PM 48.2 °F - 33.8 °F 58% 30.02 in 15.0 mi NNW 5.8 mph - N/A   Mostly Cloudy
8:00 PM 48.2 °F - 32.0 °F 54% 30.01 in 15.0 mi West 9.2 mph - N/A   Mostly Cloudy
9:00 PM 44.6 °F 41.4 °F 32.0 °F 61% 30.01 in 15.0 mi North 5.8 mph - N/A   Mostly Cloudy
10:00 PM 42.8 °F 37.0 °F 32.0 °F 66% 30.01 in 15.0 mi NNE 10.4 mph - N/A   Mostly Cloudy